Location: Trebic
(49.2170°N, 15.8830°E)
Time: 08:25:19
(UTC+02:00)

Transit 2A Rocket - Pass Details

Date: 28 July 2019
Orbit: 590 x 913 km, 66.7° (Epoch: 20 August)

Event Time Altitude Azimuth Distance (km) Brightness Sun altitude
Rises 00:43:09 0° 153° (SSE) 3,510 - -21.5°
Reaches altitude 10° 00:47:22 10° 126° (SE) 2,535 - -21.6°
Exits shadow 00:48:52 12° 111° (ESE) 2,375 7.3 -21.6°
Maximum altitude 00:49:35 12° 103° (ESE) 2,349 7.3 -21.6°
Drops below altitude 10° 00:51:47 10° 81° (E) 2,481 7.7 -21.6°
Sets 00:55:46 0° 52° (NE) 3,350 8.8 -21.7°
